FALCON 9 DEB (45591 NORAD) Tracking and Keplerian Element Data

This shows tracking and keplerian element data for the satellite.

Feedback or suggestion? Click here.




ElementValue
Catalog45591
NameFALCON 9 DEB
Epoch Orbit465
Epoch Day142.70151852
Epoch Year2020
RAAN249.5023
Inclination52.9943
Eccentricity0.0014566
Argument of Perigee159.5647
Mean Anonmoly200.5984
Mean Motion16.36729414
Decay Rate0.04000556
L11 45591U 20025BN 20142.70151852 .04000556 12204-4 40828-3 0 9999
L22 45591 52.9943 249.5023 0014566 159.5647 200.5984 16.36729414 4658

Live tracking and technical data element details for FALCON 9 DEB (NORAD 45591). FALCON 9 DEB can be tracked NOW for your location showing map with azimuth and elevation plus other details from your city location.

Track the satellite on the map from your city or location and see movement details for azimuth, elevation, latitude, longitude, range, height, and movement on the map or in text.







IsCatalogInMostPopularTable: catalog: 45591, numindb: 16
Update: records affected: 1



GetName: 45591 FALCON 9 DEB

Hit Count: updated at: Fri, 03 Jul 2020 17:18:17 GMT